User: anonymous
Location: Caltech
(34.1382°N, 118.1253°W)
Time: 07:46:24
(UTC-07:00)
Language:

BREEZE M DEB (TANK) - Orbit

View from above orbital plane
View from above orbital plane
View from above satellite
View from above satellite

Ground track
Ground track

The orbit data is extracted from the following two-line orbital elements,

1 33437U 08057B   14210.13017448  .00002365  00000-0  72785-3 0   669
2 33437 049.5712 064.1515 5007146 032.4852 094.8269 05.55726294114974
Epoch (UTC): 29 July 2014 03:07:27
Eccentricity: 0.5007146
inclination: 49.5712°
perigee height: 344 km
apogee height: 13827 km
right ascension of ascending node: 64.1515°
argument of perigee: 32.4852°
revolutions per day: 5.55726294
mean anomaly at epoch: 94.8269°
orbit number at epoch: 11497

The dashed part of the orbit path shows where the satellite is in the earth's shadow,  

DLR